Dewpoint
68 68 69 70 72 73 72 71 71 71 72 72 72 74 74 75 75 74 74 73 72 73 72 71 71 71 70 69 69 65 61 58 57 62 58 61 63 64 63 62 62 62 60
69 69 68 70 72 72 72 72 72 71 72 72 73 73 74 74 75 74 74 74 74 73 73 72 72 72 72 72 71 70 69 67 62 65 68 66 66 66 65 63 59 55 55
69 69 69 69 70 71 72 72 73 72 72 72 73 73 74 74 74 75 75 74 74 74 74 74 73 73 73 73 73 72 72 71 68 65 68 67 67 66 66 63 61 61 57
68 68 69 69 69 70 72 72 72 74 74 72 73 74 74 74 74 74 74 74 74 74 74 74 74 74 74 74 73 73 73 72 71 69 69 70 69 69 64 63 65 61 61
69 69 69 69 69 70 70 72 72 72 72 74 73 73 74 73 72 74 74 74 74 74 74 74 74 74 71 72 73 74 73 72 72 70 70 70 69 69 68 67 62 62 63
70 69 70 70 70 69 70 70 71 71 71 72 72 72 73 72 68 66 71 73 74 74 73 74 74 72 71 68 68 68 71 73 72 71 71 70 71 72 71 68 65 61 62
69 69 70 70 70 70 70 70 69 69 70 70 70 72 72 72 66 65 66 72 72 72 73 73 72 72 71 73 69 66 67 66 68 72 71 71 71 71 71 69 64 62 61
69 69 70 70 70 70 71 71 70 70 70 69 69 69 70 70 64 64 65 71 72 73 73 73 73 73 73 72 72 72 72 72 71 69 70 71 71 72 71 70 67 62 59
64 66 67 69 70 71 70 71 71 70 71 70 70 70 70 69 62 61 64 71 71 72 72 73 73 73 68 64 71 71 71 71 67 63 64 64 63 62 66 63 61 59 58
61 62 64 65 67 69 72 72 72 71 71 71 71 72 68 71 63 59 62 69 70 70 71 72 66 69 64 61 69 70 69 70 71 71 70 66 64 66 61 66 64 60 59
62 63 63 65 66 67 69 71 72 72 72 72 72 72 72 71 71 60 58 69 70 70 70 70 71 62 59 58 58 70 69 70 69 70 69 68 67 66 64 63 64 62 59
62 63 63 65 67 69 70 71 72 72 72 71 72 72 72 72 64 63 58 59 66 70 70 71 71 61 57 56 56 58 58 60 67 67 67 68 67 67 64 62 62 60 60
62 62 62 63 64 66 68 70 72 72 71 71 71 70 71 73 72 60 59 58 58 66 71 68 63 58 56 58 56 56 56 64 66 67 67 68 66 66 62 61 59 58 55
60 61 62 63 63 66 66 67 69 71 71 71 71 71 71 72 71 72 72 68 60 62 64 68 67 64 62 65 65 65 66 68 68 69 69 69 64 60 60 59 56 55 54
58 60 60 62 63 64 65 65 65 68 65 68 72 73 72 72 72 66 68 73 72 69 68 70 70 70 70 70 70 70 68 67 66 67 66 64 62 60 60 58 57 54 54
58 58 59 60 61 61 62 62 58 56 51 47 47 52 67 60 49 50 49 51 53 54 66 71 71 71 70 70 70 69 69 66 66 67 67 65 63 61 60 57 55 54 54
55 56 58 58 58 58 59 60 60 60 56 49 48 47 45 45 45 45 45 46 48 53 69 72 72 72 72 72 71 69 67 69 70 67 65 65 63 63 59 57 56 54 53
50 51 54 58 58 57 58 58 59 59 59 60 55 51 48 46 45 44 44 47 62 56 66 70 72 72 71 71 69 69 70 71 68 65 63 63 63 61 59 58 57 55 53
47 48 52 54 57 55 57 57 58 58 58 58 58 53 51 48 46 46 44 61 64 66 66 67 68 68 70 70 70 70 71 70 67 65 63 62 61 60 59 60 58 53 51
46 49 51 53 54 55 55 55 54 55 56 56 55 54 53 55 57 57 59 60 60 60 61 63 64 65 66 67 68 70 69 67 66 65 64 63 61 61 60 58 58 54 52
41 46 48 51 52 52 53 54 54 53 53 54 54 52 45 54 54 54 54 55 55 56 55 56 56 56 56 58 62 63 63 62 62 62 62 61 60 59 58 58 57 54 53
39 46 45 44 49 51 51 51 52 52 52 51 52 51 45 52 52 52 52 53 53 53 53 52 52 51 51 51 51 54 60 60 60 60 60 60 59 58 58 58 57 55 52
38 43 46 44 44 45 46 49 50 51 50 49 49 49 49 49 49 49 50 51 50 50 48 49 49 49 49 48 48 47 48 49 51 60 59 58 58 58 57 56 54 53 52
37 41 45 45 44 43 42 42 43 45 47 47 46 47 47 47 46 46 47 47 48 47 46 45 45 46 46 46 45 45 42 40 48 59 59 58 58 54 56 55 54 53 52
37 38 36 41 42 40 42 42 41 41 46 47 46 45 42 44 43 43 45 46 46 45 44 43 40 37 37 37 38 40 36 33 39 38 58 58 57 56 56 56 55 53 52
33 37 36 35 35 39 42 46 44 44 42 43 45 46 45 41 40 38 38 37 38 38 41 42 38 37 37 37 36 35 33 33 37 34 45 56 57 56 56 56 55 54 53
Lifted_Index
-1 -1 -1 -1 -2 -2 -3 -3 -3 -3 -3 -3 -3 -4 -5 -5 -6 -6 -6 -6 -6 -6 -6 -7 -7 -7 -7 -6 -6 -6 -6 -7 -7 -7 -7 -7 -7 -6 -6 -6 -6 -5 -5
-1 -1 -1 -1 -1 -2 -3 -3 -3 -3 -3 -3 -3 -4 -5 -5 -6 -6 -7 -7 -7 -7 -7 -7 -7 -7 -7 -7 -7 -7 -7 -7 -7 -7 -7 -6 -6 -6 -6 -5 -5 -5 -5
-2 -2 -1 -1 -1 -2 -3 -3 -3 -3 -3 -3 -4 -4 -5 -5 -6 -6 -7 -7 -7 -7 -7 -7 -7 -7 -8 -8 -8 -8 -7 -7 -7 -6 -6 -6 -6 -5 -5 -4 -4 -5 -5
-3 -2 -2 -2 -2 -2 -2 -3 -3 -3 -4 -4 -4 -4 -5 -5 -5 -6 -6 -7 -7 -7 -7 -7 -7 -7 -7 -7 -7 -7 -7 -7 -6 -6 -5 -5 -5 -5 -4 -4 -4 -4 -5
-3 -3 -3 -3 -2 -2 -2 -2 -3 -3 -3 -4 -4 -4 -5 -5 -5 -5 -6 -6 -6 -7 -7 -7 -7 -7 -7 -7 -7 -6 -6 -6 -5 -5 -5 -5 -5 -4 -4 -3 -4 -4 -4
-3 -3 -3 -3 -3 -3 -2 -2 -2 -3 -3 -3 -3 -4 -4 -4 -5 -5 -5 -6 -6 -6 -6 -6 -6 -6 -6 -6 -6 -6 -5 -5 -5 -4 -4 -4 -5 -4 -4 -3 -3 -4 -4
-3 -3 -3 -4 -4 -4 -3 -3 -3 -2 -2 -2 -2 -3 -3 -4 -4 -4 -4 -5 -5 -5 -5 -6 -6 -6 -6 -5 -5 -5 -5 -4 -4 -4 -4 -4 -4 -4 -3 -3 -3 -3 -3
-3 -3 -3 -4 -5 -5 -4 -4 -3 -3 -3 -3 -2 -2 -2 -3 -3 -3 -3 -4 -4 -4 -5 -5 -5 -5 -5 -5 -5 -4 -4 -4 -4 -3 -3 -3 -3 -3 -3 -3 -3 -3 -3
-5 -4 -4 -4 -4 -5 -4 -4 -4 -4 -4 -4 -3 -3 -3 -3 -3 -3 -3 -3 -3 -4 -4 -4 -4 -4 -4 -4 -4 -4 -4 -4 -4 -4 -4 -4 -4 -3 -3 -3 -3 -3 -3
-6 -6 -5 -5 -5 -5 -5 -5 -5 -5 -5 -5 -5 -4 -4 -4 -4 -4 -4 -3 -3 -3 -3 -3 -4 -4 -4 -4 -4 -4 -4 -4 -4 -5 -5 -4 -4 -4 -4 -3 -3 -2 -2
-6 -6 -6 -6 -6 -6 -6 -6 -6 -6 -6 -6 -6 -6 -5 -5 -5 -5 -5 -4 -4 -4 -4 -4 -4 -4 -4 -4 -4 -4 -5 -5 -5 -5 -5 -5 -4 -4 -4 -3 -3 -2 -2
-4 -5 -5 -6 -6 -7 -7 -7 -7 -7 -7 -7 -6 -6 -6 -6 -6 -6 -6 -5 -5 -5 -5 -5 -5 -5 -5 -5 -5 -6 -6 -6 -6 -6 -5 -5 -5 -4 -4 -3 -3 -2 -2
-2 -2 -4 -5 -6 -7 -8 -8 -8 -8 -8 -8 -7 -7 -7 -7 -7 -6 -6 -6 -6 -6 -6 -6 -6 -6 -6 -6 -6 -7 -7 -7 -6 -6 -5 -5 -5 -4 -4 -3 -3 -2 -2
0 -0 -1 -3 -4 -6 -7 -8 -8 -8 -8 -8 -8 -8 -7 -7 -7 -7 -7 -7 -7 -7 -7 -7 -7 -6 -6 -6 -7 -7 -7 -6 -5 -5 -5 -5 -5 -5 -4 -4 -3 -3 -3
2 1 1 0 -1 -3 -4 -6 -7 -7 -8 -8 -8 -8 -8 -8 -8 -8 -8 -8 -8 -8 -8 -8 -7 -7 -7 -6 -6 -6 -5 -4 -3 -3 -4 -4 -4 -4 -4 -4 -3 -3 -3
2 2 2 2 1 0 -1 -2 -4 -5 -6 -7 -8 -8 -8 -8 -8 -9 -9 -9 -9 -9 -9 -8 -8 -7 -7 -6 -6 -5 -3 -1 -1 -2 -3 -4 -4 -4 -4 -4 -4 -3 -3
2 2 2 2 3 2 1 0 -1 -3 -4 -5 -6 -7 -7 -8 -8 -8 -9 -9 -9 -9 -9 -9 -8 -8 -7 -6 -6 -4 -3 -2 -2 -3 -3 -3 -3 -3 -3 -4 -4 -4 -3
2 2 2 3 3 3 3 2 1 -0 -2 -3 -3 -4 -5 -6 -7 -7 -8 -8 -8 -8 -8 -8 -8 -8 -7 -7 -6 -5 -3 -3 -3 -3 -3 -3 -2 -2 -3 -3 -3 -3 -4
2 2 3 4 4 4 4 3 3 2 1 0 -1 -2 -3 -4 -5 -5 -6 -6 -7 -7 -7 -7 -7 -7 -7 -7 -6 -5 -4 -4 -4 -3 -3 -2 -2 -2 -2 -2 -2 -3 -3
4 4 5 5 5 5 5 4 4 3 3 2 1 0 -1 -2 -2 -3 -4 -4 -5 -5 -5 -5 -6 -6 -6 -6 -5 -5 -4 -4 -4 -3 -3 -2 -2 -2 -1 -2 -1 -2 -2
5 5 6 6 6 6 6 6 5 4 4 4 3 2 1 0 -1 -1 -2 -2 -3 -3 -3 -4 -4 -5 -5 -4 -4 -4 -4 -4 -3 -3 -2 -2 -2 -1 -1 -1 -1 -1 -1
6 6 6 7 7 7 7 7 6 5 5 5 4 3 2 1 1 -0 -0 -1 -1 -1 -2 -2 -3 -3 -3 -3 -3 -3 -3 -3 -3 -2 -2 -2 -1 -1 -1 -0 -1 -1 -1
7 7 8 8 8 9 9 8 8 7 6 6 5 4 4 3 2 1 1 1 0 0 -0 -1 -2 -2 -2 -2 -2 -2 -2 -2 -1 -1 -1 -0 -0 -0 -0 -0 -0 -0 -1
9 9 9 10 10 10 10 10 10 9 8 8 7 6 5 4 4 3 3 2 2 2 1 1 -0 -0 -1 -1 -1 -1 -1 -0 -0 0 0 0 0 0 0 0 -0 -0 -0
10 10 10 10 11 11 11 11 11 11 10 10 9 9 8 7 7 7 6 6 5 4 4 3 2 2 1 1 1 1 1 1 1 1 1 1 1 1 0 0 0 0 0
10 10 10 10 11 11 12 11 11 11 11 11 11 11 10 10 10 9 9 8 8 7 6 5 4 3 3 3 2 2 2 1 1 1 1 1 1 1 1 1 1 1 1